Voltar ao catálogo

GREB

AtivoCiênciaLEO
NORAD 731·PAYLOAD·🇺🇸 United States

Lançado Jan 11, 1964 de Vandenberg Space Force Base

Loading…

Próximas Passagens (próximas 24 horas)

TLE

AtualizadoSource: Space-Track

Época: Sep 13, 2026, 21:31 UTC

1   731U 64001E   26256.89682709 -.00000021  00000-0  23875-4 0  9995
2   731  69.9044  76.4765 0016602 274.0536  85.8672 13.96320426189967

Acompanhe GREB em tempo real com AllMySat

Download on the App Store